This is the latest recevied weather packets stored in our database for station/object N6WDO. If no packets are shown the sender has not sent any weather packets the latest 10 day(s).
| Time | Temp. | Humidity | Pressure | Rain* | Wind** | Luminosity | Snow |
|---|---|---|---|---|---|---|---|
| 1778151758 | 10.56° C | 96% | 1020.2 hPa | 0 mm | - | 0 W/m² | - |
| 1778151454 | 11.11° C | 96% | 1020.2 hPa | 0 mm | - | 0 W/m² | - |
| 1778151151 | 11.11° C | 96% | 1020.2 hPa | 0 mm | - | 0 W/m² | - |
| 1778150240 | 11.11° C | 96% | 1020.3 hPa | 0 mm | - | 0 W/m² | - |
| 1778149937 | 11.11° C | 95% | 1020.4 hPa | 0 mm | - | 0 W/m² | - |
| 1778149633 | 11.11° C | 95% | 1020.3 hPa | 0 mm | - | 0 W/m² | - |
| 1778149330 | 11.11° C | 95% | 1020.5 hPa | 0 mm | - | 0 W/m² | - |
| 1778149026 | 11.11° C | 95% | 1020.4 hPa | 0 mm | - | 0 W/m² | - |
| 1778148721 | 11.11° C | 95% | 1020.4 hPa | 0 mm | - | 0 W/m² | - |
| 1778148419 | 11.67° C | 95% | 1020.4 hPa | 0 mm | - | 0 W/m² | - |
| 1778148117 | 11.11° C | 95% | 1020.5 hPa | 0 mm | - | 0 W/m² | - |
| 1778147815 | 11.11° C | 95% | 1020.6 hPa | 0 mm | - | 0 W/m² | - |
| 1778147511 | 11.67° C | 95% | 1020.4 hPa | 0 mm | - | 0 W/m² | - |
| 1778147208 | 11.11° C | 95% | 1020.5 hPa | 0 mm | - | 0 W/m² | - |
| 1778146602 | 11.11° C | 95% | 1020.3 hPa | 0 mm | - | 0 W/m² | - |
| 1778146301 | 11.11° C | 94% | 1020.5 hPa | 0 mm | - | 0 W/m² | - |
| 1778145997 | 11.67° C | 94% | 1020.8 hPa | 0 mm | - | 0 W/m² | - |
| 1778145693 | 11.67° C | 93% | 1020.8 hPa | 0 mm | - | 0 W/m² | - |
| 1778145390 | 11.67° C | 93% | 1020.7 hPa | 0 mm | - | 0 W/m² | - |
| 1778145086 | 11.67° C | 93% | 1020.6 hPa | 0 mm | - | 0 W/m² | - |
| 1778144782 | 11.67° C | 93% | 1020.9 hPa | 0 mm | - | 0 W/m² | - |
| 1778144480 | 11.67° C | 93% | 1020.6 hPa | 0 mm | - | 0 W/m² | - |
| 1778144176 | 12.22° C | 93% | 1020.8 hPa | 0 mm | - | 0 W/m² | - |
| 1778143873 | 11.67° C | 93% | 1020.7 hPa | 0 mm | - | 0 W/m² | - |
| 1778143570 | 11.67° C | 93% | 1020.8 hPa | 0 mm | - | 0 W/m² | - |
* Rain latest hour (hover to see other rain measurements)
** Current wind speed in m/s (hover to see current wind gust speed)